Weather History for KCCY - September, 2012

Change the Weather History Date:

Tuesday, September 11, 2012

  Actual Average Record
Temperature  
Mean Temperature 73 °F -  
Max Temperature 89 °F 78 °F 95 °F (2000)
Min Temperature 57 °F 51 °F 33 °F (1955)
Cooling Degree Days 8    
Growing Degree Days 23 (Base 50)    
Moisture  
Dew Point 46 °F    
Average Humidity 45    
Maximum Humidity 77    
Minimum Humidity 13    
Precipitation  
Precipitation 0.00 in - - ()
Sea Level Pressure  
Sea Level Pressure 29.95 in    
Wind  
Wind Speed 12 mph (South)    
Max Wind Speed 24 mph    
Max Gust Speed 31 mph    
Visibility 10 miles    
Events      
Averages and records for this station are not official NWS values.
T = Trace of Precipitation, MM = Missing Value Source: NWS Daily Summary

Daily Weather History Graph

Daily Weather History Graph

Search for Another Location

Airport or City:

Trip Planner

Search our weather history database for the weather conditions in past years. The results will help you decide how hot, cold, wet, or windy it might be!

Date:

Astronomy

Sep. 11, 2012 Rise Set
Actual Time 6:46 AM CDT 7:26 PM CDT
Civil Twilight 6:17 AM CDT 7:55 PM CDT
Nautical Twilight 5:43 AM CDT 8:29 PM CDT
Astronomical Twilight 5:08 AM CDT 9:04 PM CDT
Moon 1:58 AM CDT (9/11) 4:42 PM CDT (9/11)
Length of Visible Light 13h 37m
Length of Day
12h 40m
Waning Crescent, 21% of the Moon is Illuminated
Sep 11
Waning Crescent
Sep 15
New
Sep 22
First Quarter
Sep 29
Full
Oct 8
Last Quarter

Hourly Weather History & Observations

Time (CDT) Temp. Dew Point Humidity Pressure Visibility Wind Dir Wind Speed Gust Speed Precip Events Conditions
12:15 AM 62.6 °F 48.2 °F 59% 29.98 in 10.0 mi South 10.4 mph 16.1 mph N/A   Clear
12:35 AM 62.6 °F 50.0 °F 63% 29.98 in 10.0 mi South 11.5 mph - N/A   Clear
12:55 AM 62.6 °F 50.0 °F 63% 29.98 in 10.0 mi South 10.4 mph - N/A   Clear
1:15 AM 60.8 °F 50.0 °F 68% 29.98 in 10.0 mi South 9.2 mph - N/A   Clear
1:35 AM 60.8 °F 50.0 °F 68% 29.97 in 10.0 mi South 10.4 mph - N/A   Clear
1:55 AM 60.8 °F 50.0 °F 68% 29.97 in 10.0 mi South 9.2 mph - N/A   Clear
2:15 AM 60.8 °F 50.0 °F 68% 29.97 in 10.0 mi South 8.1 mph - N/A   Clear
2:35 AM 60.8 °F 50.0 °F 68% 29.97 in 10.0 mi South 8.1 mph - N/A   Clear
2:55 AM 59.0 °F 50.0 °F 72% 29.96 in 10.0 mi South 9.2 mph - N/A   Clear
3:15 AM 59.0 °F 50.0 °F 72% 29.96 in 10.0 mi South 8.1 mph - N/A   Clear
3:35 AM 59.0 °F 50.0 °F 72% 29.96 in 10.0 mi SSE 6.9 mph - N/A   Clear
3:55 AM 57.2 °F 50.0 °F 77% 29.96 in 10.0 mi SSE 6.9 mph - N/A   Clear
4:15 AM 57.2 °F 50.0 °F 77% 29.97 in 10.0 mi SSE 6.9 mph - N/A   Clear
4:35 AM 57.2 °F 50.0 °F 77% 29.97 in 10.0 mi SSE 8.1 mph - N/A   Clear
4:55 AM 57.2 °F 50.0 °F 77% 29.97 in 10.0 mi SSE 6.9 mph - N/A   Clear
5:15 AM 57.2 °F 50.0 °F 77% 29.97 in 10.0 mi SSE 9.2 mph - N/A   Clear
5:35 AM 57.2 °F 50.0 °F 77% 29.97 in 10.0 mi SSE 9.2 mph - N/A   Clear
5:55 AM 57.2 °F 50.0 °F 77% 29.97 in 10.0 mi SSE 9.2 mph - N/A   Clear
6:15 AM 57.2 °F 50.0 °F 77% 29.97 in 10.0 mi SSE 10.4 mph - N/A   Clear
6:35 AM 57.2 °F 50.0 °F 77% 29.98 in 10.0 mi South 9.2 mph - N/A   Clear
6:55 AM 57.2 °F 50.0 °F 77% 29.98 in 10.0 mi South 10.4 mph - N/A   Clear
7:15 AM 59.0 °F 50.0 °F 72% 29.98 in 10.0 mi South 9.2 mph 16.1 mph N/A   Clear
7:35 AM 59.0 °F 51.8 °F 77% 29.97 in 10.0 mi SSE 10.4 mph - N/A   Clear
7:55 AM 60.8 °F 51.8 °F 72% 29.97 in 10.0 mi South 10.4 mph 17.3 mph N/A   Clear
8:15 AM 62.6 °F 51.8 °F 68% 29.98 in 10.0 mi South 9.2 mph 16.1 mph N/A   Clear
8:35 AM 64.4 °F 51.8 °F 64% 29.97 in 10.0 mi South 11.5 mph 17.3 mph N/A   Clear
8:55 AM 66.2 °F 51.8 °F 60% 29.97 in 10.0 mi South 13.8 mph 23.0 mph N/A   Clear
9:15 AM 68.0 °F 51.8 °F 56% 29.97 in 10.0 mi South 18.4 mph 24.2 mph N/A   Clear
9:35 AM 69.8 °F 51.8 °F 53% 29.98 in 10.0 mi South 15.0 mph 21.9 mph N/A   Clear
9:55 AM 71.6 °F 51.8 °F 50% 29.97 in 10.0 mi South 15.0 mph 19.6 mph N/A   Clear
10:15 AM 73.4 °F 51.8 °F 47% 29.97 in 10.0 mi South 12.7 mph 19.6 mph N/A   Clear
10:35 AM 75.2 °F 48.2 °F 38% 29.97 in 10.0 mi SSW 16.1 mph 23.0 mph N/A   Clear
10:55 AM 77.0 °F 48.2 °F 36% 29.97 in 10.0 mi SSW 16.1 mph 21.9 mph N/A   Clear
11:15 AM 78.8 °F 48.2 °F 34% 29.97 in 10.0 mi SSW 17.3 mph 24.2 mph N/A   Clear
11:35 AM 80.6 °F 48.2 °F 32% 29.96 in 10.0 mi South 13.8 mph 21.9 mph N/A   Clear
11:55 AM 82.4 °F 46.4 °F 28% 29.95 in 10.0 mi South 17.3 mph 23.0 mph N/A   Clear
12:15 PM 82.4 °F 46.4 °F 28% 29.95 in 10.0 mi South 12.7 mph 24.2 mph N/A   Clear
12:35 PM 84.2 °F 44.6 °F 25% 29.95 in 10.0 mi SSW 15.0 mph 24.2 mph N/A   Clear
12:55 PM 86.0 °F 42.8 °F 22% 29.95 in 10.0 mi South 16.1 mph 26.5 mph N/A   Clear
1:15 PM 87.8 °F 42.8 °F 21% 29.94 in 10.0 mi SSW 19.6 mph 24.2 mph N/A   Clear
1:35 PM 87.8 °F 41.0 °F 19% 29.93 in 10.0 mi SSW 21.9 mph 27.6 mph N/A   Clear
1:55 PM 87.8 °F 39.2 °F 18% 29.93 in 10.0 mi SSW 19.6 mph 29.9 mph N/A   Clear
2:15 PM 86.0 °F 39.2 °F 19% 29.92 in 10.0 mi SSW 20.7 mph 27.6 mph N/A   Clear
2:35 PM 87.8 °F 41.0 °F 19% 29.92 in 10.0 mi South 16.1 mph 25.3 mph N/A   Clear
2:55 PM 87.8 °F 37.4 °F 17% 29.91 in 10.0 mi SSW 24.2 mph 31.1 mph N/A   Clear
3:15 PM 87.8 °F 39.2 °F 18% 29.90 in 10.0 mi South 15.0 mph 25.3 mph N/A   Clear
3:35 PM 89.6 °F 35.6 °F 15% 29.90 in 10.0 mi South 16.1 mph 26.5 mph N/A   Clear
3:55 PM 87.8 °F 35.6 °F 16% 29.90 in 10.0 mi South 18.4 mph 29.9 mph N/A   Clear
4:15 PM 87.8 °F 30.2 °F 13% 29.89 in 10.0 mi South 20.7 mph 29.9 mph N/A   Clear
4:35 PM 87.8 °F 30.2 °F 13% 29.89 in 10.0 mi SSW 17.3 mph 27.6 mph N/A   Clear
4:55 PM 87.8 °F 32.0 °F 14% 29.89 in 10.0 mi SSW 17.3 mph 26.5 mph N/A   Clear
5:15 PM 87.8 °F 32.0 °F 14% 29.89 in 10.0 mi South 17.3 mph 26.5 mph N/A   Clear
5:35 PM 86.0 °F 35.6 °F 17% 29.89 in 10.0 mi South 12.7 mph 21.9 mph N/A   Clear
5:55 PM 86.0 °F 35.6 °F 17% 29.89 in 10.0 mi South 11.5 mph 21.9 mph N/A   Clear
6:15 PM 87.8 °F 33.8 °F 15% 29.89 in 10.0 mi South 13.8 mph 24.2 mph N/A   Clear
6:35 PM 84.2 °F 32.0 °F 15% 29.90 in 10.0 mi SSW 16.1 mph 27.6 mph N/A   Clear
6:55 PM 84.2 °F 35.6 °F 18% 29.90 in 10.0 mi South 17.3 mph 27.6 mph N/A   Clear
7:15 PM 80.6 °F 39.2 °F 23% 29.90 in 10.0 mi South 10.4 mph 16.1 mph N/A   Clear
7:35 PM 78.8 °F 41.0 °F 26% 29.91 in 10.0 mi South 8.1 mph - N/A   Clear
7:55 PM 78.8 °F 42.8 °F 28% 29.92 in 10.0 mi South 9.2 mph - N/A   Clear
8:15 PM 77.0 °F 44.6 °F 32% 29.92 in 10.0 mi South 11.5 mph 16.1 mph N/A   Clear
8:35 PM 77.0 °F 44.6 °F 32% 29.93 in 10.0 mi South 10.4 mph - N/A   Clear
8:55 PM 75.2 °F 44.6 °F 34% 29.93 in 10.0 mi South 10.4 mph - N/A   Clear
9:15 PM 75.2 °F 44.6 °F 34% 29.93 in 10.0 mi South 9.2 mph - N/A   Clear
9:35 PM 73.4 °F 46.4 °F 38% 29.94 in 10.0 mi South 9.2 mph - N/A   Clear
9:55 PM 71.6 °F 48.2 °F 43% 29.95 in 10.0 mi South 8.1 mph - N/A   Clear
10:15 PM 71.6 °F 50.0 °F 46% 29.96 in 10.0 mi South 8.1 mph - N/A   Clear
10:35 PM 69.8 °F 51.8 °F 53% 29.96 in 10.0 mi South 9.2 mph - N/A   Clear
10:55 PM 69.8 °F 51.8 °F 53% 29.96 in 10.0 mi South 8.1 mph - N/A   Clear
11:35 PM 71.6 °F 51.8 °F 50% 29.97 in 10.0 mi South 9.2 mph - N/A   Clear
11:55 PM 71.6 °F 53.6 °F 53% 29.97 in 10.0 mi South 9.2 mph - N/A   Clear